Weather in Maykop

Russia / Republic of Adygea     44°36′31″N   40°05′54″E
temp.,
°C
wind,
m/s
gust,
m/s
humid.,
%
clouds,
%
prec.,
mm/h
press.,
hPa
HPBL,
m
27 october, wed
wed2700:00+2se11890 0.0 102917
03:00+1se11911 0.0 102914
06:00+1sse11872 0.0 102711
09:00+6sw01600 0.0 1026139
12:00+12nw12430 0.0 1025524
15:00+13nnw22420 0.0 1024623
18:00+6ene00660 0.0 102410
21:00+5s11740 0.0 102413
28 october, thu
thu2800:00+4s11790 0.0 102413
03:00+4s11820 0.0 102411
06:00+3ssw11840 0.0 102411
09:00+8ssw11651 0.0 1025178
12:00+12nw22574 0.0 1024876
15:00+12nnw236588 0.0 1023672
18:00+8sse008043 0.0 102433
21:00+8wnw1180100 0.0 102465
29 october, fri
fri2900:00+7w117943 0.0 102439
03:00+5sse008692 0.0 102511
06:00+4se1187100 0.0 102511
09:00+8ese11710 0.0 1025247
12:00+12nne23523 0.0 1024932
15:00+12ne344821 0.0 10241142
18:00+8ene385574 0.0 1025226
21:00+7ene3105859 0.0 1026280
30 october, sat
sat3000:00+5e25712 0.0 1026112
03:00+4ese12825 0.0 102722
06:00+4ene13855 0.0 102758
09:00+8e2467100 0.0 1028317
12:00+11e3556100 0.0 1027717
15:00+13ene45485 0.0 10261235
18:00+10e411590 0.0 1027439
21:00+7e35690 0.0 1026148
31 october, sun
sun3100:00+5ese11800 0.0 102620
03:00+5e11850 0.0 102511
06:00+5e1188100 0.0 102411
09:00+9ne1169100 0.0 1023127
12:00+14ne235198 0.0 1022490
15:00+16ne234998 0.0 1020623
18:00+11ene2470100 0.0 1021132
21:00+9ese1182100 0.0 102116